Tracking 28790 objects as of 19-Apr-2024
HD Live streaming from Space Station
objects crossing your sky now

COSMOS 2251 DEB

Track COSMOS 2251 DEB now!
10-day predictions


NORAD ID: 34458
Int'l Code: 1993-036TB
Perigee: 643.1 km
Apogee: 665.6 km
Inclination: 74.0 °
Period: 97.7 minutes
Semi major axis: 7025 km
RCS: 0.0199 m2 (small)
Launch date: June 16, 1993
Source: Commonwealth of Independent States (former USSR) (CIS)
Launch site: PLESETSK MISSILE AND SPACE COMPLEX (PKMTR)

Note: This is SATELLITE DEBRIS
Your satellite tracking list
Your tracking list is empty




NASA's NSSDC Master Catalog

Two Line Element Set (TLE):
1 34458U 93036TB  24110.17941214  .00052436  00000-0  78392-2 0  9993
2 34458  74.0203 118.7349 0015988 297.1921 183.5306 14.74352019799857
Source of the keplerian elements: AFSPC